{"data":{"norad_id":63194,"intl_designator":"2025-048M","name":"STARLINK-11636 [DTC]","alt_names":[],"object_type":"PAYLOAD","status":"ACTIVE","operator":null,"country":"US","launch_date":"2025-03-13","launch_site_code":"AFETR","launch_vehicle":null,"mission":null,"orbit_class":"UNKNOWN","rcs_meters":null,"size_class":null,"mass_kg":null,"dimensions":null,"purposes":["comms"],"wikipedia_slug":null,"has_3d_model":false,"image_url":null,"decayed_at":null,"tle_current":{"epoch":"2026-09-21T20:54:24.720480Z","epoch_age_seconds":43835,"freshness":"FRESH","line1":"1 63194U 25048M   26264.87111945  .00168544  00000+0  12827-2 0  9997","line2":"2 63194  42.9993 217.5379 0001525 231.7679 128.3052 15.70985138 89378","mean_motion":15.70985138,"eccentricity":0.0001525,"inclination_deg":42.9993,"raan_deg":217.5379,"arg_perigee_deg":231.7679,"mean_anomaly_deg":128.3052,"bstar":0.0012827,"rev_number":8937,"period_min":91.662229334215,"perigee_km":355.05329380681,"apogee_km":357.1072300717,"semimajor_km":6734.2172619393,"source":"CELESTRAK","updated_at":"2026-09-22T09:00:49.796721Z"}}}